Date,TemperatureHighF,TemperatureAvgF,TemperatureLowF,DewpointHighF,DewpointAvgF,DewpointLowF,HumidityHigh,HumidityAvg,HumidityLow,PressureMaxIn,PressureMinIn,WindSpeedMaxMPH,WindSpeedAvgMPH,GustSpeedMaxMPH,PrecipitationSumIn
2013-1-1,35.1,29.2,16.2,29.7,22.8,7.7,88,77,62,29.87,29.69,9,3,0,0.00
2013-1-2,28.4,19.0,7.7,18.2,12.7,6.1,94,77,60,30.03,29.86,7,2,0,0.00
2013-1-3,25.0,16.5,2.3,16.0,8.7,-3.2,86,71,58,30.06,29.92,8,2,0,0.00
2013-1-4,35.1,28.2,18.3,27.9,23.3,15.9,93,82,72,29.92,29.77,7,2,0,0.00
2013-1-5,39.0,29.7,22.6,29.5,24.1,19.6,91,80,68,30.16,29.82,8,2,0,0.00
2013-1-6,41.4,30.8,23.2,33.7,28.0,21.2,98,90,74,30.12,29.85,8,1,0,0.03
2013-1-7,36.1,29.0,19.8,30.7,24.9,18.2,98,85,65,30.30,29.92,9,2,0,0.00
2013-1-8,44.6,32.7,19.8,35.0,29.0,18.5,98,87,67,30.31,30.23,5,2,0,0.00
2013-1-9,42.3,33.5,20.5,39.5,31.7,20.0,98,93,76,30.29,29.99,7,2,0,0.00
2013-1-10,42.1,37.3,30.2,36.0,29.2,26.5,88,73,61,30.45,30.05,10,4,0,0.00
2013-1-11,36.5,30.7,23.9,34.7,29.0,23.4,98,94,79,30.45,30.06,4,1,0,0.35
2013-1-12,45.9,39.2,34.2,45.4,38.7,33.7,98,98,98,30.09,30.01,5,1,0,0.13
2013-1-13,46.2,42.4,38.1,45.7,41.9,37.6,98,98,98,30.07,29.92,4,1,0,0.01
2013-1-14,51.1,43.5,33.1,50.6,41.5,30.3,98,93,76,30.20,29.84,9,3,0,0.03
2013-1-15,36.5,32.8,29.1,31.9,29.5,26.6,98,88,79,30.26,30.13,7,2,0,0.00
2013-1-16,32.7,30.7,27.9,32.2,30.0,27.4,98,97,86,30.14,29.73,7,1,0,0.00
2013-1-17,41.2,32.1,24.6,40.1,29.8,17.2,98,91,73,30.00,29.76,6,2,0,0.67
2013-1-18,24.4,19.8,15.8,16.7,9.9,5.0,78,65,51,30.34,29.94,9,3,0,0.00
2013-1-19,41.9,33.0,20.3,35.0,26.8,13.1,97,78,69,30.26,29.80,8,3,0,0.02
2013-1-20,48.2,36.9,24.1,37.1,29.2,12.3,98,75,43,29.88,29.53,9,4,0,0.00
2013-1-21,28.9,21.9,16.7,22.9,17.1,11.9,98,83,58,29.99,29.67,8,1,0,0.00
2013-1-22,20.5,15.3,7.2,17.1,5.3,-4.2,98,66,47,30.00,29.66,9,3,0,0.00
2013-1-23,15.3,7.2,-0.2,2.8,-2.4,-5.4,85,65,49,30.07,29.99,8,2,0,0.00
2013-1-24,15.8,8.1,-2.2,3.5,-2.2,-6.0,85,64,44,30.19,30.01,19,4,0,0.00
2013-1-25,22.1,13.9,5.2,15.5,5.2,0.7,98,70,43,30.25,29.92,6,1,0,0.00
2013-1-26,20.7,13.8,7.2,12.5,7.5,3.8,98,77,56,30.20,29.91,10,4,0,0.00
2013-1-27,28.6,18.8,8.8,10.8,5.9,2.7,98,61,35,30.37,30.20,9,2,0,0.00
2013-1-28,31.5,24.7,15.3,31.0,20.8,3.7,98,86,57,30.37,29.88,4,1,0,0.00
2013-1-29,35.1,31.3,27.3,34.6,30.8,26.8,98,98,98,30.08,29.89,7,2,0,0.01
2013-1-30,55.9,46.2,33.8,55.3,45.6,33.3,98,98,67,30.02,29.31,8,2,0,0.51
2013-1-31,58.5,43.2,25.5,57.5,37.1,17.8,98,80,52,29.57,28.92,17,6,0,1.79
2013-2-1,28.4,23.5,17.6,19.6,13.5,8.2,78,65,52,30.03,29.57,9,4,0,0.00
2013-2-2,28.4,20.8,10.4,20.5,12.9,8.2,98,73,49,30.14,29.94,7,2,0,0.00
2013-2-3,28.4,21.2,14.5,24.1,18.3,14.0,98,89,67,29.94,29.64,6,1,0,0.00
2013-2-4,27.9,22.0,16.5,18.7,14.2,9.1,98,73,53,29.84,29.66,8,2,0,0.00
2013-2-5,26.8,22.9,20.3,24.5,20.8,11.8,98,92,68,29.89,29.80,5,2,0,0.00
2013-2-6,36.5,28.5,20.8,32.1,21.7,5.1,98,78,47,30.23,29.80,7,2,0,0.04
2013-2-7,30.4,22.3,13.6,17.6,10.0,4.6,82,60,46,30.42,30.23,8,2,0,0.00
2013-2-8,28.6,24.9,19.6,28.1,23.2,14.7,98,94,68,30.29,29.50,21,7,0,0.00
2013-2-9,23.0,19.3,13.6,20.9,14.8,4.1,98,84,59,30.17,29.60,0,0,0,0.00
2013-2-10,37.2,23.0,7.7,16.6,5.6,-0.9,81,50,24,30.35,30.16,5,1,0,0.00
2013-2-11,43.0,35.4,21.9,42.5,34.2,15.1,98,95,73,30.24,29.54,6,1,0,0.47
2013-2-12,43.5,36.8,33.3,39.8,33.3,29.3,98,88,70,29.83,29.57,9,2,0,0.00
2013-2-13,42.3,34.1,23.7,32.6,28.4,23.2,98,81,60,29.83,29.60,4,1,0,0.00
2013-2-14,41.5,33.1,26.8,31.7,28.7,26.3,98,85,60,29.89,29.62,5,2,0,0.03
2013-2-15,49.6,37.6,28.4,41.5,35.0,27.9,98,91,66,29.91,29.81,6,1,0,0.00
2013-2-16,36.7,30.7,26.1,36.2,26.5,20.7,98,85,59,29.87,29.61,7,4,0,0.06
2013-2-17,26.6,20.0,12.4,21.6,8.1,2.5,81,60,44,29.74,29.44,14,7,0,0.00
2013-2-18,29.3,19.5,10.9,12.6,6.5,2.2,73,57,41,30.09,29.75,14,4,0,0.00
2013-2-19,43.7,34.1,20.3,42.5,29.6,11.5,98,84,64,30.09,29.52,8,2,0,0.31
2013-2-20,35.1,28.1,19.8,34.6,20.1,11.0,98,73,53,29.77,29.52,10,4,0,0.00
2013-2-21,29.5,22.4,18.7,19.5,16.6,13.8,98,79,61,30.17,29.76,14,5,0,0.00
2013-2-22,37.0,28.1,16.3,31.3,24.7,15.8,98,88,67,30.30,30.17,8,3,0,0.00
2013-2-23,35.6,32.5,30.2,35.1,32.0,29.7,98,98,98,30.20,29.76,10,4,0,0.16
2013-2-24,39.7,34.7,30.7,39.2,34.2,30.2,98,98,98,29.83,29.61,11,4,0,0.04
2013-2-25,42.3,34.2,28.2,36.0,31.0,27.7,98,89,68,30.15,29.84,10,3,0,0.00
2013-2-26,39.6,33.8,24.3,36.5,31.8,23.8,98,93,74,30.23,29.94,12,4,0,0.01
2013-2-27,41.4,37.4,31.8,40.9,36.9,31.3,98,98,98,29.92,29.47,18,8,0,1.48
2013-2-28,46.2,37.7,32.9,45.4,37.1,32.4,98,98,91,29.53,29.44,6,1,0,0.00
2013-3-1,42.6,36.3,32.2,39.2,34.2,31.7,98,93,73,29.64,29.47,9,4,0,0.00
2013-3-2,36.0,31.8,27.0,32.8,30.3,26.5,98,94,81,29.65,29.56,8,4,0,0.00
2013-3-3,31.5,27.3,24.3,30.2,26.0,23.7,98,95,78,29.60,29.52,8,5,0,0.00
2013-3-4,36.7,28.9,23.7,29.1,26.1,23.2,98,90,71,29.74,29.59,14,6,0,0.00
2013-3-5,45.1,35.5,26.8,35.5,30.7,26.3,98,84,60,29.94,29.75,15,4,0,0.00
2013-3-6,38.5,35.0,32.7,38.0,34.5,32.2,98,98,98,29.93,29.86,21,8,0,0.01
2013-3-7,36.3,32.1,29.5,35.8,31.6,29.0,98,98,98,29.96,29.87,14,6,0,0.03
2013-3-8,39.9,33.5,29.1,39.1,32.0,28.6,98,95,73,30.09,29.86,11,5,0,0.52
2013-3-9,54.9,40.3,27.7,32.9,28.9,14.1,98,68,20,30.25,30.08,8,3,0,0.02
2013-3-10,49.8,36.8,23.0,39.3,33.3,22.5,98,88,59,30.30,30.20,6,2,0,0.00
2013-3-11,50.4,41.3,33.4,49.9,40.8,32.9,98,98,98,30.23,30.03,7,2,0,0.00
2013-3-12,52.0,48.0,37.6,51.5,47.5,37.1,98,98,98,30.03,29.60,9,4,0,0.00
2013-3-13,47.3,38.8,29.5,39.4,33.4,29.0,98,82,57,29.76,29.67,10,3,0,0.01
2013-3-14,32.4,28.7,25.5,31.9,21.3,15.6,98,75,54,29.78,29.71,11,5,0,0.00
2013-3-15,41.4,30.6,21.9,35.0,23.5,14.9,98,76,48,29.82,29.59,7,4,0,0.00
2013-3-16,39.0,32.0,26.2,32.8,25.5,18.5,98,79,47,29.79,29.63,6,2,0,0.00
2013-3-17,34.0,28.1,21.2,28.8,16.6,11.5,98,64,41,30.21,29.79,10,4,0,0.00
2013-3-18,33.6,26.7,17.2,27.0,14.3,8.6,98,62,40,30.33,30.01,14,5,0,0.00
2013-3-19,36.7,31.9,27.3,36.2,27.2,-56.7,98,93,1,30.00,29.56,14,5,0,0.19
2013-3-20,39.6,30.5,22.8,31.5,24.7,19.5,98,81,52,29.72,29.66,10,2,0,0.19
2013-3-21,36.9,30.1,24.8,26.5,20.9,14.4,98,71,48,29.73,29.49,9,2,0,0.03
2013-3-22,37.8,29.9,18.9,29.7,22.3,14.3,98,74,59,29.71,29.58,7,3,0,0.00
2013-3-23,41.4,34.7,27.7,31.7,26.5,22.0,98,74,51,29.78,29.64,12,4,0,0.00
2013-3-24,43.5,35.1,25.2,30.4,27.6,22.8,98,75,57,29.80,29.62,7,3,0,0.00
2013-3-25,42.1,35.8,30.0,34.3,31.5,28.4,98,85,64,29.66,29.38,14,5,0,0.00
2013-3-26,47.1,38.0,30.7,39.4,31.3,23.9,98,79,51,29.74,29.47,7,3,0,0.00
2013-3-27,52.0,40.0,28.0,35.4,30.5,25.0,98,71,43,29.82,29.74,9,3,0,0.00
2013-3-28,46.8,39.7,32.0,42.5,37.4,31.5,98,92,68,29.98,29.82,8,3,0,0.00
2013-3-29,54.7,44.1,36.7,40.9,36.9,32.3,98,78,53,30.01,29.93,11,4,0,0.00
2013-3-30,55.0,43.5,32.4,42.5,31.8,23.6,98,68,35,30.05,29.95,7,3,0,0.00
2013-3-31,55.8,42.2,25.3,45.7,34.7,24.8,98,78,42,30.04,29.59,11,3,0,0.09
2013-4-1,59.4,44.1,30.7,56.2,40.9,20.4,98,89,58,29.76,29.49,12,3,0,0.10
2013-4-2,40.5,32.9,25.3,25.7,19.0,14.1,98,59,37,29.91,29.77,10,4,0,0.00
2013-4-3,42.4,33.8,25.3,22.9,19.2,16.1,73,55,41,30.15,29.92,13,4,0,0.00
2013-4-4,53.2,38.9,24.1,36.5,25.5,17.0,98,62,32,30.26,29.99,9,2,0,0.00
2013-4-5,58.5,43.9,35.2,37.6,31.3,23.7,98,66,26,29.97,29.62,10,4,0,0.00
2013-4-6,46.9,36.9,29.1,30.1,16.9,9.9,88,48,23,30.22,29.87,12,4,0,0.00
2013-4-7,54.1,41.7,30.6,47.9,36.2,19.7,98,82,54,30.21,29.92,11,3,0,0.00
2013-4-8,68.0,54.5,39.2,51.1,44.6,38.7,98,73,42,30.00,29.89,6,2,0,0.00
2013-4-9,74.1,60.3,47.3,65.1,51.6,46.8,98,76,49,29.94,29.81,10,2,0,0.01
2013-4-10,66.2,55.7,46.9,65.0,54.4,46.2,98,96,73,29.88,29.74,7,2,0,0.22
2013-4-11,54.0,49.1,39.2,53.4,46.9,32.3,98,93,53,30.02,29.71,7,3,0,0.00
2013-4-12,39.4,37.0,35.1,38.9,36.5,34.6,98,98,98,30.02,29.67,14,7,0,0.00
2013-4-13,53.2,44.3,34.3,47.9,40.6,33.8,98,88,66,29.85,29.66,8,2,0,0.01
2013-4-14,50.2,43.1,36.7,46.8,36.5,29.9,98,79,51,30.15,29.85,10,3,0,0.00
2013-4-15,57.9,44.8,31.6,41.9,36.7,29.4,98,75,50,30.31,30.14,6,2,0,0.00
2013-4-16,65.5,50.4,35.2,62.5,49.4,34.7,98,97,78,30.31,30.03,9,2,0,0.00
2013-4-17,66.2,55.4,47.1,53.4,44.6,33.9,98,70,43,30.23,30.03,10,4,0,0.01
2013-4-18,60.1,50.9,38.3,52.0,43.0,33.5,98,77,47,30.30,30.05,10,4,0,0.00
2013-4-19,68.4,60.0,50.5,67.8,59.4,50.0,98,98,98,30.05,29.57,9,3,0,0.00
2013-4-20,61.7,49.2,36.9,61.1,41.1,29.7,98,77,41,30.18,29.56,9,4,0,0.00
2013-4-21,52.7,41.1,30.7,37.4,27.2,21.4,95,60,35,30.55,30.20,10,4,0,0.00
2013-4-22,54.7,44.0,31.3,40.9,35.0,30.8,98,74,42,30.63,30.44,13,5,0,0.00
2013-4-23,43.3,39.1,34.7,42.8,38.6,34.2,98,98,98,30.44,30.02,14,5,0,0.00
2013-4-24,72.3,54.3,40.6,58.8,49.1,40.1,98,85,53,30.02,29.75,7,3,0,0.00
2013-4-25,61.9,51.8,42.8,50.9,39.8,30.1,98,67,33,30.18,29.76,11,3,0,0.00
2013-4-26,66.6,51.3,33.4,42.8,36.6,30.3,98,60,38,30.32,30.19,8,2,0,0.00
2013-4-27,67.5,53.3,37.8,46.8,39.9,32.4,96,63,39,30.34,30.19,7,2,0,0.00
2013-4-28,68.9,55.4,39.2,52.8,43.0,34.3,98,66,46,30.25,30.12,11,2,0,0.00
2013-4-29,61.2,53.4,47.1,60.0,46.8,37.3,98,80,57,30.18,30.13,7,2,0,0.00
2013-4-30,67.8,55.0,40.8,50.9,39.4,30.8,98,62,30,30.27,30.16,7,2,0,0.00
2013-5-1,69.6,55.1,37.6,51.7,42.3,32.3,98,65,39,30.41,30.27,12,2,0,0.00
2013-5-2,77.4,60.5,39.6,53.9,46.7,39.1,98,65,36,30.38,30.21,8,2,0,0.00
2013-5-3,66.6,55.3,45.5,52.5,44.4,36.5,98,68,49,30.40,30.25,10,5,0,0.00
2013-5-4,70.2,55.0,40.3,59.1,47.1,39.8,98,78,42,30.29,30.13,12,3,0,0.00
2013-5-5,67.5,50.3,35.8,51.7,43.7,35.3,98,81,45,30.23,30.11,8,2,0,0.00
2013-5-6,73.6,54.9,38.5,60.9,50.0,38.0,98,86,53,30.21,30.06,7,1,0,0.00
2013-5-7,76.1,61.4,42.8,66.7,56.4,42.3,98,85,51,30.10,30.01,8,2,0,0.00
2013-5-8,68.2,59.9,54.9,67.6,59.3,54.3,98,98,98,30.07,29.93,13,4,0,0.00
2013-5-9,62.8,57.2,52.0,62.2,56.7,51.5,98,98,98,29.95,29.80,8,1,0,0.00
2013-5-10,78.8,65.1,48.4,73.1,59.9,47.9,98,86,55,29.91,29.81,4,1,0,0.00
2013-5-11,64.0,60.7,57.6,63.4,60.1,57.0,98,98,98,29.81,29.60,6,1,0,0.00
2013-5-12,68.4,58.0,43.9,65.2,52.2,32.6,98,83,43,29.78,29.54,7,2,0,0.00
2013-5-13,55.6,46.6,36.1,43.1,37.4,34.2,98,73,48,29.98,29.78,8,2,0,0.00
2013-5-14,58.6,46.9,34.7,43.8,36.5,32.5,98,71,40,30.01,29.93,6,2,0,0.00
2013-5-15,64.0,49.0,31.6,63.4,47.4,31.1,98,95,60,30.00,29.61,8,2,0,0.00
2013-5-16,82.6,66.6,49.6,68.7,49.6,40.4,98,62,23,29.74,29.61,10,2,0,0.00
2013-5-17,69.1,59.7,50.9,53.9,46.0,40.4,98,62,41,30.12,29.74,6,2,0,0.00
2013-5-18,71.1,57.6,41.5,59.5,50.7,41.0,98,81,48,30.23,30.12,7,2,0,0.00
2013-5-19,58.6,54.4,48.7,58.0,53.8,48.2,98,98,98,30.27,30.12,6,1,0,0.00
2013-5-20,84.2,67.5,55.2,82.2,66.5,54.6,98,97,67,30.11,29.86,5,1,0,0.00
2013-5-21,89.4,74.2,60.8,86.8,73.1,60.2,98,97,73,29.89,29.72,8,2,0,0.00
2013-5-22,76.8,65.3,54.7,76.2,64.7,54.1,98,98,98,29.85,29.74,9,2,0,0.00
2013-5-23,70.7,66.3,64.2,70.1,52.8,-38.2,98,86,1,29.80,29.67,5,2,0,0.00
2013-5-24,65.8,56.2,43.5,65.2,55.6,43.0,98,98,98,29.78,29.55,6,2,0,0.00
2013-5-25,47.1,43.6,41.7,46.6,43.1,41.2,98,98,98,29.81,29.70,10,4,0,0.00
2013-5-26,59.2,49.3,41.7,54.6,46.6,41.2,98,91,67,30.07,29.76,11,4,0,0.00
2013-5-27,76.8,58.7,40.5,55.3,46.9,40.0,98,70,32,30.14,30.02,6,1,0,0.00
2013-5-28,71.4,57.2,42.8,64.5,53.0,42.3,98,88,47,30.16,30.08,6,1,0,0.00
2013-5-29,81.9,66.3,56.1,81.3,65.7,55.5,98,98,98,30.09,29.91,8,2,0,0.00
2013-5-30,92.7,77.2,62.8,86.0,74.3,62.2,98,92,63,30.04,29.94,6,1,0,0.00
2013-5-31,92.1,78.7,63.9,87.7,73.1,63.3,98,86,46,30.04,29.88,7,1,0,0.00
2013-6-1,89.4,78.1,64.6,86.1,74.5,64.0,98,90,60,29.92,29.80,9,2,0,0.00
2013-6-2,85.1,75.5,66.6,84.5,74.9,66.0,98,98,98,29.82,29.65,7,2,0,0.00
2013-6-3,79.0,69.3,57.9,76.8,68.3,57.3,98,97,82,29.79,29.69,4,1,0,0.00
2013-6-4,73.9,61.4,49.6,56.6,51.6,46.9,98,72,49,30.02,29.79,7,2,0,0.00
2013-6-5,76.6,63.1,48.7,62.5,54.7,48.2,98,76,48,30.13,30.02,4,1,0,0.00
2013-6-6,69.3,58.7,47.8,68.7,58.1,47.3,98,98,98,30.09,30.01,7,2,0,0.00
2013-6-8,74.8,68.0,59.2,74.2,67.4,58.6,98,98,98,29.96,29.82,3,0,0,0.00
2013-6-9,81.3,68.0,54.5,72.0,63.6,53.9,98,87,59,30.09,29.96,4,1,0,0.00
2013-6-10,69.4,61.7,56.3,68.8,61.1,55.7,98,98,98,30.10,29.83,10,4,0,0.00
2013-6-11,74.7,64.3,58.3,74.1,63.7,57.7,98,98,98,29.82,29.49,12,3,0,0.00
2013-6-12,71.6,63.3,54.5,67.9,61.5,53.9,98,94,74,29.77,29.56,8,3,0,0.00
2013-6-13,57.4,54.3,50.2,56.8,53.7,49.7,98,98,98,29.76,29.51,13,3,0,0.00
2013-6-14,75.0,58.8,50.2,70.2,57.3,49.7,98,95,70,29.77,29.51,8,2,0,0.00
2013-6-15,80.4,66.6,53.2,69.0,59.2,52.6,98,80,46,29.91,29.77,5,1,0,0.00
2013-6-16,77.4,65.8,50.5,74.8,63.6,50.0,98,93,70,29.90,29.65,6,1,0,0.00
2013-6-17,84.4,71.2,59.2,79.3,68.0,58.6,98,91,61,29.83,29.73,8,2,0,0.00
2013-6-18,81.3,66.2,57.2,80.7,65.6,56.6,98,98,98,29.83,29.73,9,2,0,0.00
2013-6-19,77.0,63.6,52.5,64.2,55.8,49.9,98,79,41,30.09,29.82,9,2,0,0.00
2013-6-20,81.5,65.4,46.8,69.7,58.2,46.3,98,80,50,30.20,30.09,5,1,0,0.00
2013-6-21,88.2,72.7,55.0,74.1,66.0,54.4,98,82,59,30.20,30.13,6,2,0,0.00
2013-6-22,89.4,73.7,57.6,75.5,66.4,57.0,98,81,49,30.17,30.03,6,2,0,0.00
2013-6-23,94.1,77.2,61.3,87.2,72.2,60.7,98,87,47,30.10,29.95,7,2,0,0.00
2013-6-24,99.1,79.3,66.6,90.8,74.2,66.0,98,87,55,29.97,29.84,7,2,0,0.00
2013-6-25,96.6,78.4,64.8,91.7,74.4,64.2,98,89,59,29.91,29.69,5,1,0,0.00
2013-6-26,91.0,76.9,69.1,88.3,76.0,68.5,98,97,80,29.76,29.67,5,1,0,0.00
2013-6-27,82.9,71.7,64.9,82.3,71.1,64.3,98,98,98,29.74,29.54,11,2,0,0.00
2013-6-28,86.7,75.9,67.8,86.1,75.3,67.2,98,98,98,29.53,29.37,10,3,0,0.00
2013-6-29,88.2,75.5,66.7,85.6,74.2,66.1,98,96,74,29.64,29.40,5,2,0,0.00
2013-6-30,89.4,76.7,70.2,88.8,76.1,69.6,98,98,98,29.86,29.64,5,1,0,0.00
2013-7-1,75.6,72.5,70.7,75.0,71.9,70.1,98,98,98,29.98,29.85,6,1,0,0.00
2013-7-2,84.7,75.3,71.4,84.1,74.7,70.8,98,98,98,30.10,29.98,5,1,0,0.00
2013-7-3,89.4,78.3,70.0,88.8,77.7,69.4,98,98,98,30.16,30.08,6,2,0,0.00
2013-7-4,94.5,82.7,72.5,91.1,81.0,71.9,98,95,80,30.17,30.07,5,2,0,0.00
2013-7-5,97.0,83.5,71.6,86.8,78.6,71.0,98,87,64,30.12,30.01,5,2,0,0.00
2013-7-6,96.1,84.2,72.5,88.2,79.2,71.9,98,86,60,30.05,29.95,4,1,0,0.00
2013-7-7,99.5,84.3,70.9,92.5,80.9,70.3,98,91,62,29.99,29.85,4,1,0,0.00
2013-7-8,94.8,82.1,70.0,90.6,76.9,69.4,98,86,60,29.97,29.86,5,2,0,0.00
2013-7-9,88.5,76.4,66.7,87.9,75.8,66.1,98,98,98,30.01,29.93,6,1,0,0.00
2013-7-10,88.3,76.6,71.4,87.7,76.0,70.8,98,98,98,29.96,29.72,5,1,0,0.00
2013-7-11,85.6,76.1,69.1,83.3,74.7,68.5,98,96,76,29.85,29.72,3,0,0,0.00
2013-7-12,81.0,72.5,66.7,78.2,70.9,66.1,98,95,81,30.09,29.84,9,4,0,0.00
2013-7-13,76.8,69.6,63.1,76.2,69.0,62.5,98,98,98,30.22,30.09,7,3,0,0.00
2013-7-14,95.7,82.0,72.3,89.9,78.6,71.7,98,91,61,30.26,30.16,5,1,0,0.00
2013-7-15,95.5,82.9,72.1,89.4,78.2,71.5,98,87,60,30.17,30.06,4,1,0,0.00
2013-7-16,98.1,83.7,70.0,89.7,77.5,69.4,98,84,56,30.12,30.04,4,1,0,0.00
2013-7-17,100.6,85.0,68.5,90.1,77.1,67.9,98,80,51,30.13,29.96,3,1,0,0.00
2013-7-18,100.8,86.5,73.2,88.8,80.4,72.6,98,84,58,29.99,29.86,4,1,0,0.00
2013-7-19,98.8,86.7,73.4,96.3,82.5,72.8,98,89,64,29.89,29.67,5,2,0,0.00
2013-7-20,97.5,83.2,70.3,89.4,79.7,69.7,98,90,61,29.77,29.62,5,2,0,0.00
2013-7-21,91.9,78.3,67.3,78.4,71.5,66.7,98,82,50,29.89,29.78,5,1,0,0.00
2013-7-22,84.4,74.5,64.0,83.8,73.8,63.4,98,98,93,29.90,29.76,6,2,0,0.00
2013-7-23,90.1,76.6,70.0,89.5,76.0,69.4,98,98,98,29.76,29.46,5,1,0,0.00
2013-7-24,87.1,74.1,60.8,86.5,72.9,60.2,98,96,84,29.86,29.53,4,1,0,0.00
2013-7-25,65.1,59.8,56.1,64.5,59.2,55.5,98,98,98,30.00,29.86,7,3,0,0.00
2013-7-26,82.8,67.1,59.5,80.2,66.4,58.9,98,98,87,29.97,29.90,5,1,0,0.00
2013-7-27,90.3,73.7,59.5,82.0,68.6,58.9,99,86,54,29.98,29.89,4,1,0,0.01
2013-7-28,80.6,70.7,62.8,80.0,70.3,62.5,99,98,95,29.93,29.84,5,1,0,0.00
2013-7-29,85.1,73.7,64.2,82.0,70.4,63.6,98,91,64,30.00,29.88,5,1,0,0.00
2013-7-30,81.5,69.9,57.4,75.2,66.2,56.8,98,89,59,30.07,29.99,4,1,0,0.00
2013-7-31,81.3,70.1,58.6,75.3,66.4,58.0,98,89,65,30.08,29.95,5,1,0,0.00
2013-8-1,76.5,65.9,60.1,75.9,65.3,59.5,98,98,98,29.96,29.76,4,1,0,0.00
2013-8-2,82.6,72.6,63.3,80.1,70.3,62.7,98,93,64,29.80,29.71,6,1,0,0.00
2013-8-3,80.1,67.8,62.1,79.5,67.2,61.5,98,98,98,29.80,29.72,5,1,0,0.00
2013-8-4,79.7,67.1,55.6,76.0,64.5,55.0,98,92,65,29.86,29.75,5,1,0,0.00
2013-8-5,75.7,64.4,54.9,67.0,58.2,54.3,98,83,53,29.96,29.85,6,2,0,0.00
2013-8-6,78.3,65.1,49.6,71.0,61.0,49.1,98,88,59,30.05,29.97,6,2,0,0.00
2013-8-7,75.6,66.8,55.9,75.0,66.2,55.3,98,98,96,30.10,30.01,6,2,0,0.00
2013-8-8,79.7,72.2,67.6,79.1,71.6,67.0,98,98,98,30.00,29.93,6,2,0,0.00
2013-8-9,79.5,73.4,70.7,78.9,72.8,70.1,98,98,98,29.94,29.70,5,2,0,0.00
2013-8-10,82.0,72.6,60.8,79.8,71.2,60.2,98,96,74,29.97,29.75,4,1,0,0.00
2013-8-11,79.9,67.7,55.2,73.9,63.7,54.6,98,88,65,30.04,29.93,4,1,0,0.00
2013-8-12,83.8,70.1,58.6,75.3,66.5,58.0,98,89,60,29.95,29.83,5,1,0,0.00
2013-8-13,76.8,68.2,63.0,76.2,67.6,62.4,98,98,98,29.84,29.60,6,1,0,0.00
2013-8-14,71.8,63.5,53.8,70.9,62.4,53.2,98,97,79,29.93,29.64,6,2,0,0.00
2013-8-15,76.5,63.8,51.8,72.0,59.7,51.3,98,88,58,30.06,29.93,7,1,0,0.00
2013-8-16,80.6,65.5,49.8,74.2,60.8,49.3,98,87,55,30.13,30.04,3,0,0,0.00
2013-8-17,80.6,67.6,53.2,75.7,63.5,52.6,98,88,59,30.21,30.13,5,1,0,0.00
2013-8-18,76.3,66.7,57.6,75.7,66.1,57.0,98,98,90,30.20,30.04,5,1,0,0.00
2013-8-19,79.3,69.1,58.1,78.7,68.5,57.5,98,98,98,30.04,29.93,4,1,0,0.00
2013-8-20,83.7,72.1,60.3,80.7,69.8,59.7,98,93,69,30.06,29.95,4,1,0,0.00
2013-8-21,86.5,73.0,59.5,84.5,70.7,58.9,98,93,65,30.10,29.97,5,1,0,0.00
2013-8-22,79.2,71.2,62.6,78.6,70.6,62.0,98,98,98,29.99,29.79,5,1,0,0.00
2013-8-23,79.5,71.0,62.4,78.4,68.7,61.8,98,93,63,30.04,29.78,5,2,0,0.00
2013-8-24,78.4,65.1,53.6,69.7,60.4,53.0,98,87,50,30.27,30.04,8,2,0,0.00
2013-8-25,82.6,66.9,50.5,75.6,60.9,50.0,98,84,51,30.32,30.12,4,1,0,0.00
2013-8-26,74.3,66.6,61.5,73.7,66.0,60.9,98,98,98,30.14,29.82,4,1,0,0.00
2013-8-27,82.6,72.6,67.3,82.0,72.0,66.7,98,98,98,29.83,29.73,5,1,0,0.00
2013-8-28,87.8,72.2,63.3,87.2,71.6,62.7,98,98,98,29.84,29.75,7,1,0,0.00
2013-8-29,75.0,68.9,63.5,74.4,68.3,62.9,98,98,98,29.97,29.84,8,3,0,0.00
2013-8-30,82.6,70.6,62.8,82.0,70.0,62.2,98,98,98,29.96,29.77,5,1,0,0.00
2013-8-31,80.2,73.5,69.4,79.6,72.9,68.8,98,98,98,29.77,29.71,4,1,0,0.00
2013-9-1,81.1,74.8,70.0,80.5,74.2,69.4,98,98,98,29.79,29.73,4,1,0,0.00
2013-9-2,78.6,72.6,67.3,78.0,72.0,66.7,98,98,98,29.76,29.60,4,1,0,0.00
2013-9-3,77.0,68.4,58.8,76.4,67.8,58.2,98,98,98,29.78,29.63,4,1,0,0.00
2013-9-4,79.2,66.7,55.8,78.6,66.0,55.2,98,97,86,29.89,29.77,5,1,0,0.00
2013-9-5,72.5,62.7,53.2,71.9,61.2,52.6,98,95,66,30.06,29.81,5,1,0,0.00
2013-9-6,69.1,56.7,45.3,64.9,54.3,44.8,98,92,69,30.18,30.04,5,1,0,0.00
2013-9-7,78.8,62.0,44.8,69.6,58.3,44.3,98,89,62,30.04,29.79,4,1,0,0.00
2013-9-8,75.2,64.8,52.7,74.6,62.3,52.2,98,92,60,30.01,29.72,6,2,0,0.00
2013-9-9,69.8,57.6,42.3,63.4,53.8,41.8,98,88,66,30.17,30.02,4,1,0,0.00
2013-9-10,78.6,67.7,58.6,78.0,67.1,58.0,98,98,98,30.09,29.95,6,2,0,0.00
2013-9-11,92.3,79.8,70.3,91.6,79.2,69.7,98,98,98,30.03,29.88,5,1,0,0.00
2013-9-12,85.5,74.0,67.3,84.9,73.4,66.7,98,98,98,29.90,29.59,7,1,0,0.00
2013-9-13,74.8,66.4,54.9,74.2,65.8,54.3,98,98,98,29.73,29.53,5,2,0,0.00
2013-9-14,64.2,55.5,47.7,63.6,54.9,47.2,98,98,98,30.02,29.72,5,2,0,0.00
2013-9-15,68.9,55.6,41.4,62.2,53.1,40.9,98,92,71,30.13,30.00,3,1,0,0.00
2013-9-16,67.6,57.2,46.6,67.0,56.6,46.1,98,98,97,30.18,29.96,5,1,0,0.00
2013-9-17,60.3,50.0,40.6,53.2,46.4,40.1,98,88,65,30.36,30.19,9,2,0,0.00
2013-9-18,73.2,54.9,38.7,61.7,50.1,38.2,98,86,54,30.27,30.10,6,1,0,0.00
2013-9-19,79.0,60.0,43.3,68.1,55.5,42.8,98,87,57,30.10,29.98,4,1,0,0.00
2013-9-20,81.7,62.1,45.7,72.9,58.4,45.2,98,89,59,30.02,29.92,4,1,0,0.00
2013-9-21,72.0,64.8,55.8,71.4,64.2,55.2,98,98,98,29.94,29.59,7,2,0,0.00
2013-9-22,70.5,60.5,47.5,69.9,59.8,47.0,98,98,90,29.81,29.54,6,2,0,0.00
2013-9-23,60.8,50.8,40.1,59.7,50.1,39.6,98,98,85,29.96,29.81,5,2,0,0.00
2013-9-24,68.0,53.8,38.5,58.6,49.6,38.0,98,87,56,29.96,29.77,6,1,0,0.00
2013-9-25,71.8,57.4,43.0,65.4,55.3,42.5,98,93,72,29.87,29.79,4,1,0,0.00
2013-9-26,66.6,57.1,48.2,66.0,56.5,47.7,98,98,98,30.03,29.88,7,2,0,0.00
2013-9-27,61.2,54.3,46.6,60.6,53.7,46.1,98,98,98,30.20,30.03,7,1,0,0.00
2013-9-28,71.8,57.4,45.0,70.9,56.6,44.5,98,97,87,30.28,30.17,7,1,0,0.00
2013-9-29,69.1,56.2,46.2,68.5,55.3,45.7,98,97,76,30.18,30.02,7,1,0,0.00
2013-9-30,72.9,56.9,43.0,69.4,55.9,42.5,98,97,77,30.02,29.89,6,1,0,0.00
2013-10-1,78.1,60.7,46.0,75.5,59.7,45.5,98,97,80,29.93,29.82,5,1,0,0.00
2013-10-2,80.1,65.1,51.1,79.5,64.6,50.6,98,98,98,29.92,29.82,6,1,0,0.00
2013-10-3,76.3,62.5,47.7,68.5,58.1,47.2,98,88,52,30.05,29.93,3,0,0,0.00
2013-10-4,73.6,61.2,52.3,73.0,60.6,51.8,98,98,98,29.99,29.93,9,2,0,0.00
2013-10-5,74.3,63.9,57.7,73.7,63.3,57.1,98,98,98,30.04,29.96,4,1,0,0.00
2013-10-6,63.5,59.1,55.6,62.9,58.5,55.0,98,98,98,30.08,29.99,12,4,0,0.00
2013-10-7,72.7,63.3,55.0,72.1,62.7,54.4,98,98,98,30.00,29.69,9,3,0,0.00
2013-10-8,64.2,55.2,48.4,59.3,52.7,47.9,98,92,65,30.27,29.87,6,2,0,0.00
2013-10-9,61.2,51.7,44.2,60.6,51.1,43.7,98,98,98,30.37,30.26,8,3,0,0.00
2013-10-10,57.4,51.6,44.6,56.8,51.1,44.1,98,98,98,30.26,30.08,8,3,0,0.00
2013-10-11,67.8,59.1,50.9,67.2,58.5,50.4,98,98,98,30.07,30.00,11,3,0,0.00
2013-10-12,67.1,57.5,52.2,66.5,56.9,51.7,98,98,98,30.27,30.05,16,5,0,0.00
2013-10-13,59.7,53.2,46.6,59.1,52.6,46.1,98,98,98,30.35,30.25,11,3,0,0.00
2013-10-14,65.5,52.5,38.7,64.6,51.7,38.2,98,97,86,30.32,30.17,5,1,0,0.00
2013-10-15,68.4,57.3,48.2,67.8,56.8,47.7,98,98,98,30.19,30.06,6,2,0,0.00
2013-10-16,62.4,54.1,47.5,61.8,53.5,47.0,98,98,98,30.06,29.84,5,1,0,0.00
2013-10-17,72.9,62.8,55.2,72.3,62.2,54.6,98,98,98,29.84,29.60,5,1,0,0.00
2013-10-18,66.4,59.2,47.8,65.8,57.6,47.3,98,95,78,29.86,29.55,7,2,0,0.00
2013-10-19,64.8,52.4,39.2,61.3,50.2,38.7,98,93,63,29.91,29.66,9,1,0,0.00
2013-10-20,59.2,51.6,42.1,54.8,48.0,41.6,98,89,63,29.96,29.63,6,2,0,0.00
2013-10-21,66.6,50.6,35.8,62.0,46.5,35.3,98,88,58,30.07,29.90,5,1,0,0.00
2013-10-22,65.1,52.2,43.7,64.5,51.7,43.2,98,98,98,29.90,29.66,5,2,0,0.00
2013-10-23,51.3,43.6,33.8,48.4,42.1,33.3,98,95,74,29.73,29.53,5,1,0,0.00
2013-10-24,51.6,42.2,32.0,46.6,38.4,31.5,98,88,60,29.85,29.62,8,2,0,0.00
2013-10-25,48.7,39.9,32.0,43.7,37.9,31.5,98,93,72,30.10,29.86,12,2,0,0.00
2013-10-26,52.0,41.6,29.8,48.6,37.0,29.3,98,85,58,30.10,29.80,8,2,0,0.00
2013-10-27,56.5,46.1,34.7,49.9,41.3,34.2,98,85,54,30.01,29.75,9,2,0,0.00
2013-10-28,57.2,43.1,29.5,49.5,39.8,29.0,98,90,62,30.26,30.01,7,2,0,0.00
2013-10-29,50.5,40.6,32.5,39.6,36.0,32.0,98,85,58,30.37,30.26,5,2,0,0.00
2013-10-30,52.5,42.0,31.8,52.0,41.5,31.3,98,98,98,30.28,30.11,3,0,0,0.00
2013-10-31,59.7,51.0,37.4,59.1,50.5,36.9,98,98,98,30.16,29.73,5,1,0,0.00
2013-11-1,64.4,60.2,52.0,63.8,59.6,51.5,98,98,98,29.72,29.43,9,3,0,0.00
2013-11-2,64.4,52.5,42.1,59.9,50.5,41.6,98,94,71,29.68,29.53,5,1,0,0.00
2013-11-3,47.7,39.9,29.7,47.2,38.3,19.7,98,94,65,30.36,29.68,10,4,0,0.00
2013-11-4,39.7,32.3,26.8,29.7,24.7,20.6,98,76,48,30.59,30.36,8,2,0,0.00
2013-11-5,50.7,39.1,26.6,50.2,38.5,26.1,98,98,90,30.61,30.42,6,1,0,0.00
2013-11-6,58.8,49.3,37.6,58.2,48.7,37.1,98,98,98,30.42,29.98,6,2,0,0.00
2013-11-7,60.4,50.2,35.4,59.8,49.7,34.9,98,98,98,29.98,29.65,7,3,0,0.00
2013-11-8,46.9,38.1,31.8,45.5,37.5,31.3,98,98,89,30.06,29.79,10,3,0,0.00
2013-11-9,44.6,37.8,28.9,44.1,37.1,28.4,98,97,86,30.17,29.91,5,1,0,0.00
2013-11-10,57.6,44.8,40.5,51.1,43.4,40.0,98,95,71,29.90,29.69,8,3,0,0.00
2013-11-11,50.0,43.5,34.3,45.4,39.4,33.8,98,86,63,30.07,29.84,9,3,0,0.00
2013-11-12,47.1,32.0,24.8,45.1,30.7,24.3,98,95,84,30.13,29.82,9,5,0,0.00
2013-11-13,33.3,27.1,22.1,26.3,22.3,16.9,98,84,52,30.24,30.11,11,4,0,0.00
2013-11-14,48.0,38.3,25.7,29.2,26.0,22.3,98,65,39,30.11,30.02,6,3,0,0.00
2013-11-15,57.2,43.6,32.0,34.2,27.3,21.0,80,55,29,30.14,30.06,5,1,0,0.00
2013-11-16,58.1,47.1,39.4,55.1,41.8,30.4,98,83,53,30.24,30.13,5,1,0,0.00
2013-11-17,58.3,49.3,38.3,57.7,48.8,37.8,98,98,98,30.21,29.74,7,2,0,0.00
2013-11-18,62.1,55.9,44.8,61.5,50.3,37.0,98,83,56,29.74,29.50,8,4,0,0.00
2013-11-19,44.6,37.0,29.1,39.5,33.0,28.6,98,86,71,30.25,29.65,13,5,0,0.00
2013-11-20,39.6,30.2,23.5,28.4,22.2,15.9,98,76,39,30.57,30.26,9,3,0,0.00
2013-11-21,46.2,34.6,20.3,41.7,31.3,19.8,98,89,52,30.58,30.34,4,1,0,0.00
2013-11-22,49.3,44.7,40.3,48.8,44.2,39.8,98,98,98,30.33,29.81,4,1,0,0.00
2013-11-23,46.8,37.1,25.2,46.3,33.1,24.5,98,87,57,29.94,29.77,9,4,0,0.00
2013-11-24,25.0,20.1,16.5,22.2,10.3,3.3,98,67,45,30.19,29.80,16,6,0,0.00
2013-11-25,30.2,23.7,14.0,19.7,15.9,11.4,98,73,56,30.33,30.18,7,3,0,0.00
2013-11-26,38.8,32.3,28.4,34.0,26.2,18.2,98,79,64,30.23,29.84,6,2,0,0.00
2013-11-27,60.8,42.9,32.5,60.2,42.4,32.0,98,98,98,29.81,29.21,11,4,0,0.00
2013-11-28,32.4,26.4,19.4,31.9,22.0,15.9,98,85,59,30.35,29.52,10,4,0,0.00
2013-11-29,33.1,25.2,18.3,29.7,22.8,17.8,98,91,67,30.64,30.35,8,2,0,0.00
2013-11-30,29.1,23.1,12.7,28.1,17.4,12.2,98,81,51,30.68,30.30,6,2,0,0.00
2013-12-1,44.1,35.6,28.9,43.6,35.1,28.4,98,98,98,30.29,29.93,4,1,0,0.00
2013-12-2,40.8,34.4,28.8,40.3,33.9,28.3,98,98,98,29.93,29.82,4,1,0,0.00
2013-12-3,50.4,35.7,25.2,48.4,35.0,24.7,98,97,84,29.90,29.78,4,1,0,0.00
2013-12-4,48.0,37.4,27.9,47.5,36.7,27.4,98,98,89,30.08,29.90,3,1,0,0.00
2013-12-5,54.3,44.4,37.0,53.7,43.9,36.5,98,98,98,30.09,29.85,5,2,0,0.00
2013-12-6,55.6,43.0,32.9,55.0,42.5,32.4,98,98,98,30.05,29.79,7,3,0,0.00
2013-12-7,35.8,30.9,24.4,35.3,30.4,23.9,98,98,98,30.40,30.00,9,4,0,0.00
2013-12-8,29.1,24.9,18.0,28.6,24.4,17.5,98,98,98,30.50,30.34,7,2,0,0.00
2013-12-9,34.0,29.9,23.9,33.5,29.4,23.4,98,98,98,30.34,29.82,12,3,0,0.00
2013-12-10,33.4,29.6,20.1,32.9,29.1,19.6,98,98,98,29.93,29.73,2,0,0,0.00
2013-12-11,28.0,21.5,15.8,27.5,21.0,15.3,98,98,98,30.16,29.94,3,0,0,0.00
2013-12-12,21.7,15.9,9.1,19.8,14.5,8.7,98,94,76,30.21,29.99,4,1,0,0.00
2013-12-13,29.5,20.5,10.4,27.7,19.5,9.9,98,96,85,30.25,29.94,7,2,0,0.00
2013-12-14,18.7,13.7,10.4,18.2,13.2,9.9,98,98,98,30.43,29.88,10,4,0,0.00
2013-12-15,33.6,26.1,16.2,33.1,25.6,15.7,98,98,98,29.86,29.39,14,3,0,0.00
2013-12-16,25.7,20.1,8.1,25.2,18.7,7.7,98,95,72,30.10,29.65,7,2,0,0.00
2013-12-17,16.5,11.0,2.1,16.0,10.5,1.7,98,98,98,30.13,29.81,8,3,0,0.00
2013-12-18,31.3,25.4,16.5,30.8,24.9,16.0,98,98,98,30.00,29.81,10,2,0,0.00
2013-12-19,43.3,32.3,22.8,39.5,31.3,22.3,98,96,74,30.05,29.89,6,2,0,0.00
2013-12-20,51.8,40.2,29.8,48.0,38.8,29.3,98,95,73,30.02,29.85,5,2,0,0.00
2013-12-21,56.7,47.1,39.4,56.1,46.6,38.9,98,98,98,29.91,29.79,4,2,0,0.00
2013-12-22,63.3,57.9,48.6,62.7,57.3,48.1,98,98,98,29.87,29.70,6,2,0,0.00
2013-12-23,57.2,49.8,33.8,56.6,49.2,33.3,98,98,98,30.03,29.83,14,2,0,0.00
2013-12-24,34.0,29.0,20.3,33.1,27.0,18.5,98,93,64,30.17,29.98,8,4,0,0.00
2013-12-25,23.7,17.8,11.8,18.4,11.6,7.8,98,78,56,30.40,30.18,7,3,0,0.00
2013-12-26,30.4,23.3,18.9,29.9,22.7,17.3,98,98,87,30.34,30.03,6,2,0,0.00
2013-12-27,34.2,25.2,16.3,33.5,24.6,15.8,98,98,89,30.22,30.13,10,1,0,0.00
2013-12-28,45.5,34.1,22.5,37.5,31.9,22.0,98,92,72,30.15,29.94,6,2,0,0.00
2013-12-29,40.6,37.7,34.7,40.1,37.2,34.2,98,98,98,29.96,29.35,12,3,0,0.00
2013-12-30,37.2,28.0,12.7,36.7,27.1,12.2,98,96,85,30.08,29.53,8,3,0,0.00
2013-12-31,25.7,17.7,8.8,24.5,16.4,8.4,98,95,76,30.11,29.93,5,1,0,0.00
2014-1-1,27.3,20.9,14.0,23.4,17.0,13.5,98,86,59,30.29,30.11,7,2,0,0.00
2014-1-2,20.1,14.1,5.0,19.6,13.6,4.6,98,98,98,30.20,29.62,14,7,0,0.00